Regional Weather Roundup
Issued by NWS

Home | Current Version | Previous Version | Graphics & Text | Print | Product List | Glossary On
Versions: 1 2 3 4 5 6 7 8 9 10 11 12 13 14 15 16 17 18 19 20 21 22 23 24 25 26 27 28 29 30 31 32 33 34 35 36 37 38 39 40 41 42 43 44 45 46 47 48 49 50
000
ASUS43 KDMX 281807
RWRIA

WEATHER ROUNDUP FOR IOWA
NATIONAL WEATHER SERVICE DES MOINES IA
1200 PM CST SUN DEC 28 2014

NOTE: "FAIR" INDICATES FEW OR NO CLOUDS BELOW 12,000 FEET WITH NO
SIGNIFICANT WEATHER AND/OR OBSTRUCTIONS TO VISIBILITY.

* - THESE STATIONS ARE NOT NWS STATIONS...THUS NOT UNDER NWS
QUALITY CONTROL.  THEY ALSO DO NOT REPORT WEATHER SUCH
AS PRECIPITATION OR FOG.

IAZ001>003-012>014-020>022-031>034-043>046-281900-
   NORTHWEST IOWA

CITY           SKY/WX    TMP DP  RH WIND       PRES   REMARKS
CARROLL *      SUNNY     25  18  74 CALM      30.12F
CHEROKEE *     SUNNY     17  16  97 CALM      30.14F
DENISON *      SUNNY     25  19  80 CALM      30.11F
LE MARS *      SUNNY     14  12  92 CALM      30.15F
ORANGE CITY *  SUNNY     18  14  86 NE3       30.12F
SHELDON *      SUNNY     16  14  93 CALM      30.12S
SIOUX CITY     MOSUNNY   19  13  77 CALM      30.16F
6HR MIN TEMP:   2; 6HR MAX TEMP:  19;

SPENCER        SUNNY     21  13  71 N5        30.14F WCI  15
6HR MIN TEMP:   3; 6HR MAX TEMP:  21;

STORM LAKE *   SUNNY     18  12  79 NW3       30.12S
$$

IAZ055>058-069>071-079>083-090>094-281900-
   SOUTHWEST IOWA

CITY           SKY/WX    TMP DP  RH WIND       PRES   REMARKS
ATLANTIC *     SUNNY     28  23  80 CALM      30.14S
AUDUBON *      SUNNY     27  18  69 CALM      30.12F
CLARINDA *     SUNNY     32  23  69 VRB6      30.18F WCI  26
COUNCIL BLFS * SUNNY     27  21  80 SW5       30.12F WCI  21
CRESTON *      SUNNY     30  23  74 S10       30.14F WCI  21
HARLAN  *      SUNNY     27  23  86 CALM      30.16F
LAMONI         SUNNY     31  22  69 S12       30.16F WCI  22
6HR MIN TEMP:  15; 6HR MAX TEMP:  31;

RED OAK *      SUNNY     28  21  74 S7        30.15F WCI  21
SHENANDOAH *   SUNNY     30  23  74 SW8       30.17F WCI  23
$$

IAZ047>049-059>061-072>074-084-281900-
   CENTRAL IOWA

CITY           SKY/WX    TMP DP  RH WIND       PRES   REMARKS
AMES           SUNNY     27  20  75 SW5       30.15F WCI  22
6HR MIN TEMP:  13; 6HR MAX TEMP:  28;

ANKENY *       SUNNY     28  21  74 VRB5      30.16F WCI  23
CHARITON *     SUNNY     30  23  74 SW9       30.16F WCI  22
DES MOINES     SUNNY     28  20  71 S6        30.16F WCI  22
6HR MIN TEMP:  16; 6HR MAX TEMP:  28;

GRINNELL*      SUNNY     28  21  74 SW7       30.17F WCI  21
KNOXVILLE *    SUNNY     32  21  64 SW9       30.15F WCI  24
MARSHALLTOWN   SUNNY     27  21  78 S5        30.15F WCI  22
6HR MIN TEMP:  12; 6HR MAX TEMP:  27;

PELLA *        SUNNY     33  24  70 S6        30.18F WCI  27
PERRY *          N/A     28  23  80 CALM      30.14F
$$

IAZ004>006-015-016-023>025-035-036-281900-
   NORTH CENTRAL IOWA

CITY           SKY/WX    TMP DP  RH WIND       PRES   REMARKS
ALGONA *       SUNNY     16  12  86 CALM      30.14F
CLARION *      SUNNY     18  14  86 CALM      30.14F
ESTHERVILLE    SUNNY     20  15  81 N7        30.13F WCI  11
6HR MIN TEMP:   6; 6HR MAX TEMP:  21;

FORT DODGE *   SUNNY     21  12  68 NW6       30.14F WCI  14
MASON CITY     SUNNY     19  14  81 W5        30.15F WCI  12
6HR MIN TEMP:   1; 6HR MAX TEMP:  19;

FOREST CITY *  SUNNY     23  14  68 CALM      30.13F
IOWA FALLS *     N/A     27  21  80 NW5       30.15F WCI  21
$$

IAZ007>011-017>019-026>030-037>042-050>054-066-281900-
   NORTHEAST IOWA

CITY           SKY/WX    TMP DP  RH WIND       PRES   REMARKS
CEDAR RAPIDS   SUNNY     27  18  69 SW5       30.17F WCI  22
6HR MIN TEMP:  11; 6HR MAX TEMP:  28;

CHARLES CITY * SUNNY     21  18  86 W5        30.15F WCI  15
CLINTON *      SUNNY     27  16  63 W5        30.21F WCI  21
DECORAH *      SUNNY     25  19  80 VRB5      30.14S WCI  19
DUBUQUE        SUNNY     27  16  63 W9        30.15F WCI  18
6HR MIN TEMP:  13; 6HR MAX TEMP:  27;

MONTICELLO *   SUNNY     28  16  59 W3        30.17F
OELWEIN *      SUNNY     27  19  74 SW5       30.16F WCI  21
WATERLOO       SUNNY     29  20  69 SW3       30.16F
6HR MIN TEMP:  11; 6HR MAX TEMP:  29;

$$

IAZ064-065-067-068-078-281900-
   EAST CENTRAL IOWA

CITY           SKY/WX    TMP DP  RH WIND       PRES   REMARKS
DAVENPORT      SUNNY     29  17  61 SW7       30.19F WCI  22
6HR MIN TEMP:  16; 6HR MAX TEMP:  29;

IOWA CITY      SUNNY     29  19  66 VRB5      30.20F WCI  24
6HR MIN TEMP:  14; 6HR MAX TEMP:  29;

MT. PLEASANT * SUNNY     31  17  57 SW10      30.20S WCI  22
MUSCATINE *    SUNNY     32  18  55 SW6       30.20F WCI  26
QUAD CITIES    SUNNY     31  19  61 W3        30.19F
6HR MIN TEMP:  16; 6HR MAX TEMP:  31;

$$

IAZ062-063-075>077-085>089-095>099-281900-
   SOUTHEAST IOWA

CITY           SKY/WX    TMP DP  RH WIND       PRES   REMARKS
BURLINGTON     SUNNY     31  19  61 SW7       30.19F WCI  24
6HR MIN TEMP:  22; 6HR MAX TEMP:  31;

FAIRFIELD *    SUNNY     30  16  55 S7        30.19S WCI  23
FORT MADISON * SUNNY     34  21  60 S9        30.21S WCI  26
KEOKUK *       SUNNY     32  21  64 SW8       30.20F WCI  25
OSKALOOSA *      N/A     31  22  70 SW9       30.18F WCI  22
CENTERVILLE *  SUNNY     32  23  69 SW9       30.19F WCI  24
OTTUMWA        SUNNY     31  20  63 SW7       30.17F WCI  24
6HR MIN TEMP:  14; 6HR MAX TEMP:  31;

WASHINGTON *   SUNNY     30  21  69 W7        30.19S WCI  23
$$

ABBREVIATIONS USED IN REMARKS
   TC - TEMPERATURES IN CELSIUS
  WCI - WIND CHILL INDEX
   HX - HEAT INDEX
  VSB - VISIBILITY
$$



USA.gov is the U.S. government's official web portal to all federal, state and local government web resources and services.